When you browse on this site, cookies collect data to enhance your experience and personalize the content and advertising you see.
Visit our Privacy Policy to learn more. By continuing to use the site, you agree to this use of cookies and data.
  • In Spain
  • List of Countries
  • For 7 days
  • Water Temperature
  • Weather Map
  • Weather Widgets
  • user-avatar
    Login

    Hourly Weather Osorno

    Today, 28 March, Saturday

    Time Temperature Precipitation Wind Pressure Humidity
    00:00 +14°C° 0.2 mm 1 mps 758 mmHg 94%
    01:00 +14°C° 0 mm 1 mps 758 mmHg 97%
    02:00 +13°C° 0.1 mm 1 mps 758 mmHg 97%
    03:00 +13°C° 0.1 mm 1 mps 758 mmHg 97%
    04:00 +13°C° 0.1 mm 1 mps 758 mmHg 96%
    05:00 +12°C° 0 mm 0 mps 758 mmHg 96%
    06:00 +12°C° 0 mm 0 mps 758 mmHg 95%
    07:00 +12°C° 0 mm 0 mps 759 mmHg 94%
    08:00 +13°C° 0 mm 0 mps 759 mmHg 84%
    09:00 +15°C° 0 mm 0 mps 759 mmHg 74%
    10:00 +16°C° 0 mm 0 mps 760 mmHg 63%
    11:00 +20°C° 0 mm 1 mps 760 mmHg 56%
    12:00 +21°C° 0 mm 1 mps 760 mmHg 49%
    13:00 +23°C° 0 mm 1 mps 760 mmHg 42%
    14:00 +21°C° 0.1 mm 1 mps 760 mmHg 49%
    15:00 +20°C° 0.1 mm 1 mps 760 mmHg 56%
    16:00 +18°C° 0.1 mm 2 mps 760 mmHg 63%
    17:00 +16°C° 0 mm 1 mps 761 mmHg 72%
    18:00 +14°C° 0 mm 1 mps 761 mmHg 80%
    19:00 +12°C° 0 mm 1 mps 762 mmHg 89%
    20:00 +11°C° 0 mm 1 mps 762 mmHg 91%
    21:00 +10°C° 0 mm 1 mps 762 mmHg 94%
    22:00 +9°C° 0 mm 1 mps 763 mmHg 96%
    23:00 +8°C° 0 mm 0 mps 763 mmHg 96%

    Tomorrow, 29 March, Sunday

    Time Temperature Precipitation Wind Pressure Humidity
    00:00 +8°C° 0 mm 0 mps 763 mmHg 97%
    01:00 +7°C° 0 mm 0 mps 763 mmHg 97%
    02:00 +7°C° 0 mm 0 mps 763 mmHg 97%
    03:00 +7°C° 0 mm 0 mps 763 mmHg 98%
    04:00 +6°C° 0 mm 0 mps 763 mmHg 98%
    05:00 +7°C° 0 mm 0 mps 763 mmHg 97%
    06:00 +7°C° 0 mm 0 mps 763 mmHg 95%
    07:00 +7°C° 0 mm 0 mps 763 mmHg 94%
    08:00 +11°C° 0 mm 1 mps 763 mmHg 83%
    09:00 +14°C° 0 mm 1 mps 763 mmHg 72%
    10:00 +16°C° 0 mm 1 mps 763 mmHg 61%
    11:00 +18°C° 0 mm 1 mps 763 mmHg 55%
    12:00 +18°C° 0 mm 2 mps 763 mmHg 48%
    13:00 +20°C° 0 mm 2 mps 763 mmHg 42%
    14:00 +19°C° 0 mm 2 mps 763 mmHg 45%
    15:00 +18°C° 0 mm 2 mps 763 mmHg 49%
    16:00 +18°C° 0 mm 2 mps 763 mmHg 52%
    17:00 +15°C° 0 mm 2 mps 764 mmHg 61%
    18:00 +13°C° 0 mm 2 mps 764 mmHg 70%
    19:00 +11°C° 0 mm 1 mps 764 mmHg 79%
    20:00 +10°C° 0 mm 1 mps 765 mmHg 83%
    21:00 +9°C° 0 mm 1 mps 765 mmHg 87%
    22:00 +8°C° 0 mm 1 mps 765 mmHg 91%
    23:00 +8°C° 0 mm 1 mps 765 mmHg 92%

    Day after tomorrow, 30 March, Monday

    Time Temperature Precipitation Wind Pressure Humidity
    00:00 +8°C° 0 mm 1 mps 765 mmHg 94%
    01:00 +8°C° 0 mm 1 mps 765 mmHg 95%
    02:00 +8°C° 0 mm 1 mps 764 mmHg 95%
    03:00 +8°C° 0 mm 1 mps 764 mmHg 96%
    04:00 +7°C° 0 mm 1 mps 764 mmHg 96%
    05:00 +8°C° 0 mm 1 mps 764 mmHg 95%
    06:00 +8°C° 0 mm 1 mps 764 mmHg 93%
    07:00 +8°C° 0 mm 1 mps 764 mmHg 92%
    08:00 +11°C° 0 mm 1 mps 764 mmHg 79%
    09:00 +13°C° 0 mm 2 mps 763 mmHg 66%
    10:00 +16°C° 0 mm 2 mps 763 mmHg 53%
    11:00 +17°C° 0 mm 2 mps 763 mmHg 48%
    12:00 +19°C° 0 mm 3 mps 762 mmHg 44%
    13:00 +20°C° 0 mm 3 mps 762 mmHg 39%
    14:00 +20°C° 0 mm 3 mps 762 mmHg 41%
    15:00 +19°C° 0 mm 3 mps 762 mmHg 43%
    16:00 +19°C° 0 mm 3 mps 761 mmHg 45%
    17:00 +16°C° 0 mm 2 mps 762 mmHg 56%
    18:00 +14°C° 0 mm 2 mps 762 mmHg 66%
    19:00 +11°C° 0 mm 1 mps 762 mmHg 76%
    20:00 +11°C° 0 mm 1 mps 762 mmHg 81%
    21:00 +10°C° 0 mm 1 mps 762 mmHg 86%
    22:00 +9°C° 0 mm 1 mps 762 mmHg 90%
    23:00 +9°C° 0 mm 1 mps 762 mmHg 92%

    31 March, Tuesday

    Time Temperature Precipitation Wind Pressure Humidity
    00:00 +9°C° 0 mm 1 mps 761 mmHg 94%
    01:00 +9°C° 0 mm 1 mps 761 mmHg 96%
    02:00 +9°C° 0 mm 1 mps 761 mmHg 96%
    03:00 +9°C° 0 mm 1 mps 761 mmHg 97%
    04:00 +9°C° 0 mm 1 mps 761 mmHg 97%
    05:00 +10°C° 0 mm 1 mps 761 mmHg 95%
    06:00 +10°C° 0 mm 1 mps 761 mmHg 93%
    07:00 +10°C° 0 mm 2 mps 761 mmHg 90%
    08:00 +12°C° 0 mm 2 mps 761 mmHg 84%
    09:00 +13°C° 0 mm 2 mps 761 mmHg 77%
    10:00 +14°C° 0 mm 2 mps 761 mmHg 71%
    11:00 +16°C° 0 mm 2 mps 761 mmHg 65%
    12:00 +17°C° 0 mm 2 mps 761 mmHg 59%
    13:00 +19°C° 0 mm 2 mps 761 mmHg 53%
    14:00 +18°C° 0 mm 2 mps 761 mmHg 54%
    15:00 +18°C° 0 mm 2 mps 761 mmHg 54%
    16:00 +18°C° 0 mm 2 mps 760 mmHg 55%
    17:00 +16°C° 0 mm 2 mps 761 mmHg 65%
    18:00 +13°C° 0 mm 2 mps 762 mmHg 75%
    19:00 +11°C° 0 mm 1 mps 762 mmHg 85%
    20:00 +10°C° 0 mm 1 mps 763 mmHg 87%
    21:00 +10°C° 0 mm 1 mps 763 mmHg 89%
    22:00 +9°C° 0 mm 1 mps 763 mmHg 91%
    23:00 +9°C° 0 mm 1 mps 763 mmHg 92%

    1 April, Wednesday

    Time Temperature Precipitation Wind Pressure Humidity
    00:00 +8°C° 0 mm 1 mps 764 mmHg 94%
    01:00 +8°C° 0 mm 1 mps 764 mmHg 95%
    02:00 +8°C° 0 mm 1 mps 764 mmHg 96%
    03:00 +7°C° 0 mm 1 mps 764 mmHg 97%
    04:00 +7°C° 0 mm 1 mps 764 mmHg 98%
    05:00 +6°C° 0 mm 0 mps 764 mmHg 96%
    06:00 +7°C° 0 mm 0 mps 765 mmHg 95%
    07:00 +7°C° 0 mm 0 mps 765 mmHg 93%
    08:00 +10°C° 0 mm 1 mps 765 mmHg 81%
    09:00 +13°C° 0 mm 1 mps 765 mmHg 69%
    10:00 +16°C° 0 mm 2 mps 765 mmHg 57%
    11:00 +17°C° 0 mm 2 mps 765 mmHg 52%
    12:00 +18°C° 0 mm 2 mps 765 mmHg 47%
    13:00 +20°C° 0 mm 2 mps 765 mmHg 42%
    14:00 +20°C° 0 mm 3 mps 765 mmHg 43%
    15:00 +19°C° 0 mm 3 mps 765 mmHg 45%
    16:00 +19°C° 0 mm 3 mps 765 mmHg 46%
    17:00 +17°C° 0 mm 2 mps 766 mmHg 55%
    18:00 +14°C° 0 mm 2 mps 766 mmHg 65%
    19:00 +12°C° 0 mm 2 mps 767 mmHg 74%
    20:00 +11°C° 0 mm 1 mps 767 mmHg 79%
    21:00 +10°C° 0 mm 1 mps 767 mmHg 85%
    22:00 +10°C° 0 mm 1 mps 767 mmHg 90%
    23:00 +9°C° 0 mm 1 mps 767 mmHg 93%

    2 April, Thursday

    Time Temperature Precipitation Wind Pressure Humidity
    00:00 +9°C° 0 mm 1 mps 767 mmHg 95%
    01:00 +9°C° 0 mm 1 mps 767 mmHg 97%
    02:00 +9°C° 0 mm 1 mps 767 mmHg 97%
    03:00 +9°C° 0 mm 1 mps 767 mmHg 98%
    04:00 +9°C° 0 mm 1 mps 766 mmHg 98%
    05:00 +9°C° 0 mm 1 mps 766 mmHg 98%
    06:00 +9°C° 0 mm 1 mps 766 mmHg 97%
    07:00 +10°C° 0 mm 1 mps 766 mmHg 96%
    08:00 +12°C° 0 mm 1 mps 765 mmHg 86%
    09:00 +14°C° 0 mm 2 mps 765 mmHg 75%
    10:00 +16°C° 0 mm 2 mps 765 mmHg 65%
    11:00 +18°C° 0 mm 2 mps 764 mmHg 58%
    12:00 +20°C° 0 mm 2 mps 764 mmHg 51%
    13:00 +23°C° 0 mm 2 mps 763 mmHg 45%
    14:00 +23°C° 0 mm 2 mps 763 mmHg 46%
    15:00 +21°C° 0 mm 2 mps 763 mmHg 47%
    16:00 +21°C° 0 mm 3 mps 762 mmHg 47%
    17:00 +18°C° 0 mm 2 mps 762 mmHg 57%
    18:00 +15°C° 0 mm 2 mps 762 mmHg 66%
    19:00 +13°C° 0 mm 1 mps 762 mmHg 75%
    20:00 +12°C° 0 mm 1 mps 762 mmHg 81%
    21:00 +11°C° 0 mm 1 mps 762 mmHg 87%
    22:00 +10°C° 0 mm 1 mps 762 mmHg 94%
    23:00 +10°C° 0 mm 1 mps 762 mmHg 95%
    Show more